Time,TemperatureF,DewpointF,PressureIn,WindDirection,WindDirectionDegrees,WindSpeedMPH,WindSpeedGustMPH,Humidity,HourlyPrecipIn,Conditions,Clouds,dailyrainin,SoftwareType,DateUTC
2013-04-01 00:02:00,35.0,22.0,-100.00,NNW,340,3.0,9.0,61,-99.99,,,-99.99,,2013-04-01 05:02:00,
2013-04-01 00:12:00,34.0,22.0,-100.00,NW,320,3.0,9.0,61,-99.99,,,-99.99,,2013-04-01 05:12:00,
2013-04-01 00:22:00,35.0,20.0,-100.00,North,355,3.0,9.0,55,-99.99,,,-99.99,,2013-04-01 05:22:00,
2013-04-01 00:32:00,35.0,20.0,-100.00,North,355,3.0,9.0,55,-99.99,,,-99.99,,2013-04-01 05:32:00,
2013-04-01 00:42:00,34.0,19.0,-100.00,North,0,3.0,10.0,53,-99.99,,,-99.99,,2013-04-01 05:42:00,
2013-04-01 00:53:00,34.0,18.0,-100.00,North,0,3.0,11.0,51,-99.99,,,-99.99,,2013-04-01 05:53:00,
2013-04-01 01:02:00,34.0,18.0,-100.00,North,0,3.0,11.0,51,-99.99,,,-99.99,,2013-04-01 06:02:00,
2013-04-01 01:12:00,34.0,17.0,-100.00,North,0,3.0,10.0,50,-99.99,,,-99.99,,2013-04-01 06:12:00,
2013-04-01 01:23:00,33.0,17.0,-100.00,North,0,2.0,5.0,51,-99.99,,,-99.99,,2013-04-01 06:23:00,
2013-04-01 01:33:00,33.0,17.0,-100.00,North,0,2.0,5.0,51,-99.99,,,-99.99,,2013-04-01 06:33:00,
2013-04-01 01:43:00,33.0,17.0,-100.00,North,0,2.0,11.0,51,-99.99,,,-99.99,,2013-04-01 06:43:00,
2013-04-01 01:53:00,32.0,16.0,-100.00,WNW,300,2.0,6.0,52,-99.99,,,-99.99,,2013-04-01 06:53:00,
2013-04-01 02:02:00,32.0,16.0,-100.00,WNW,300,2.0,6.0,52,-99.99,,,-99.99,,2013-04-01 07:02:00,
2013-04-01 02:12:00,32.0,16.0,-100.00,WNW,300,1.0,6.0,53,-99.99,,,-99.99,,2013-04-01 07:12:00,
2013-04-01 02:22:00,32.0,17.0,-100.00,NNW,345,1.0,7.0,54,-99.99,,,-99.99,,2013-04-01 07:22:00,
2013-04-01 02:32:00,32.0,17.0,-100.00,NNW,345,1.0,7.0,54,-99.99,,,-99.99,,2013-04-01 07:32:00,
2013-04-01 02:42:00,32.0,16.0,-100.00,North,355,2.0,11.0,53,-99.99,,,-99.99,,2013-04-01 07:42:00,
2013-04-01 02:53:00,31.0,16.0,-100.00,NNW,335,3.0,7.0,53,-99.99,,,-99.99,,2013-04-01 07:53:00,
2013-04-01 03:03:00,31.0,16.0,-100.00,NNW,335,3.0,7.0,53,-99.99,,,-99.99,,2013-04-01 08:03:00,
2013-04-01 03:12:00,31.0,16.0,-100.00,North,0,2.0,9.0,53,-99.99,,,-99.99,,2013-04-01 08:12:00,
2013-04-01 03:22:00,31.0,16.0,-100.00,North,0,4.0,11.0,54,-99.99,,,-99.99,,2013-04-01 08:22:00,
2013-04-01 03:32:00,31.0,16.0,-100.00,North,0,4.0,11.0,54,-99.99,,,-99.99,,2013-04-01 08:32:00,
2013-04-01 03:43:00,31.0,16.0,-100.00,North,0,4.0,9.0,54,-99.99,,,-99.99,,2013-04-01 08:43:00,
2013-04-01 03:53:00,30.0,16.0,-100.00,North,0,3.0,9.0,55,-99.99,,,-99.99,,2013-04-01 08:53:00,
2013-04-01 04:02:00,30.0,16.0,-100.00,North,0,3.0,9.0,55,-99.99,,,-99.99,,2013-04-01 09:02:00,
2013-04-01 04:12:00,30.0,16.0,-100.00,North,0,2.0,10.0,56,-99.99,,,-99.99,,2013-04-01 09:12:00,
2013-04-01 04:22:00,30.0,16.0,-100.00,North,0,2.0,6.0,56,-99.99,,,-99.99,,2013-04-01 09:22:00,
2013-04-01 04:33:00,30.0,16.0,-100.00,North,0,2.0,6.0,56,-99.99,,,-99.99,,2013-04-01 09:33:00,
2013-04-01 04:42:00,30.0,16.0,-100.00,North,0,2.0,9.0,56,-99.99,,,-99.99,,2013-04-01 09:42:00,
2013-04-01 04:53:00,29.0,16.0,-100.00,North,0,3.0,10.0,57,-99.99,,,-99.99,,2013-04-01 09:53:00,
2013-04-01 05:03:00,29.0,16.0,-100.00,North,0,3.0,10.0,57,-99.99,,,-99.99,,2013-04-01 10:03:00,
2013-04-01 05:12:00,29.0,16.0,-100.00,North,350,3.0,8.0,57,-99.99,,,-99.99,,2013-04-01 10:12:00,
2013-04-01 05:23:00,29.0,16.0,-100.00,North,350,2.0,6.0,58,-99.99,,,-99.99,,2013-04-01 10:23:00,
2013-04-01 05:33:00,29.0,16.0,-100.00,North,350,2.0,6.0,58,-99.99,,,-99.99,,2013-04-01 10:33:00,
2013-04-01 05:42:00,29.0,16.0,-100.00,North,0,3.0,9.0,58,-99.99,,,-99.99,,2013-04-01 10:42:00,
2013-04-01 05:53:00,28.0,16.0,-100.00,North,0,2.0,6.0,59,-99.99,,,-99.99,,2013-04-01 10:53:00,
2013-04-01 06:03:00,28.0,16.0,-100.00,North,0,2.0,6.0,59,-99.99,,,-99.99,,2013-04-01 11:03:00,
2013-04-01 06:13:00,28.0,16.0,-100.00,North,0,2.0,9.0,60,-99.99,,,-99.99,,2013-04-01 11:13:00,
2013-04-01 06:23:00,28.0,16.0,-100.00,North,0,2.0,6.0,60,-99.99,,,-99.99,,2013-04-01 11:23:00,
2013-04-01 06:33:00,28.0,16.0,-100.00,North,0,2.0,6.0,60,-99.99,,,-99.99,,2013-04-01 11:33:00,
2013-04-01 06:42:00,28.0,16.0,-100.00,North,0,2.0,8.0,59,-99.99,,,-99.99,,2013-04-01 11:42:00,
2013-04-01 06:53:00,28.0,15.0,-100.00,North,0,2.0,7.0,58,-99.99,,,-99.99,,2013-04-01 11:53:00,
2013-04-01 07:02:00,28.0,15.0,-100.00,North,0,2.0,7.0,58,-99.99,,,-99.99,,2013-04-01 12:02:00,
2013-04-01 07:12:00,27.0,15.0,-100.00,NNW,345,1.0,2.0,60,-99.99,,,-99.99,,2013-04-01 12:12:00,
2013-04-01 07:23:00,27.0,16.0,-100.00,NNW,335,1.0,4.0,62,-99.99,,,-99.99,,2013-04-01 12:23:00,
2013-04-01 07:32:00,27.0,16.0,-100.00,NNW,335,1.0,4.0,62,-99.99,,,-99.99,,2013-04-01 12:32:00,
2013-04-01 07:42:00,27.0,16.0,-100.00,NW,325,1.0,2.0,63,-99.99,,,-99.99,,2013-04-01 12:42:00,
2013-04-01 07:53:00,27.0,17.0,-100.00,North,0,1.0,8.0,63,-99.99,,,-99.99,,2013-04-01 12:53:00,
2013-04-01 08:03:00,27.0,17.0,-100.00,North,0,1.0,8.0,63,-99.99,,,-99.99,,2013-04-01 13:03:00,
2013-04-01 08:12:00,28.0,17.0,-100.00,North,355,1.0,4.0,63,-99.99,,,-99.99,,2013-04-01 13:12:00,
2013-04-01 08:22:00,28.0,16.0,-100.00,North,355,2.0,14.0,59,-99.99,,,-99.99,,2013-04-01 13:22:00,
2013-04-01 08:32:00,28.0,16.0,-100.00,North,355,2.0,14.0,59,-99.99,,,-99.99,,2013-04-01 13:32:00,
2013-04-01 08:42:00,29.0,15.0,-100.00,North,0,4.0,7.0,57,-99.99,,,-99.99,,2013-04-01 13:42:00,
2013-04-01 08:53:00,29.0,14.0,-100.00,North,10,4.0,14.0,54,-99.99,,,-99.99,,2013-04-01 13:53:00,
2013-04-01 09:03:00,29.0,14.0,-100.00,North,10,4.0,14.0,54,-99.99,,,-99.99,,2013-04-01 14:03:00,
2013-04-01 09:12:00,29.0,14.0,-100.00,North,5,5.0,15.0,52,-99.99,,,-99.99,,2013-04-01 14:12:00,
2013-04-01 09:22:00,29.0,13.0,-100.00,North,0,5.0,14.0,51,-99.99,,,-99.99,,2013-04-01 14:22:00,
2013-04-01 09:33:00,29.0,13.0,-100.00,North,0,5.0,14.0,51,-99.99,,,-99.99,,2013-04-01 14:33:00,
2013-04-01 09:42:00,30.0,13.0,-100.00,North,0,4.0,18.0,50,-99.99,,,-99.99,,2013-04-01 14:42:00,
2013-04-01 09:53:00,29.0,12.0,-100.00,North,0,4.0,18.0,48,-99.99,,,-99.99,,2013-04-01 14:53:00,
2013-04-01 10:03:00,29.0,12.0,-100.00,North,0,4.0,18.0,48,-99.99,,,-99.99,,2013-04-01 15:03:00,
2013-04-01 10:13:00,30.0,12.0,-100.00,North,0,5.0,17.0,47,-99.99,,,-99.99,,2013-04-01 15:13:00,
2013-04-01 10:22:00,31.0,13.0,-100.00,North,0,5.0,14.0,47,-99.99,,,-99.99,,2013-04-01 15:22:00,
2013-04-01 10:34:00,31.0,13.0,-100.00,North,0,5.0,14.0,47,-99.99,,,-99.99,,2013-04-01 15:34:00,
2013-04-01 10:43:00,30.0,12.0,-100.00,North,0,4.0,19.0,45,-99.99,,,-99.99,,2013-04-01 15:43:00,
2013-04-01 10:54:00,31.0,12.0,-100.00,North,0,5.0,18.0,44,-99.99,,,-99.99,,2013-04-01 15:54:00,
2013-04-01 11:03:00,31.0,12.0,-100.00,North,0,5.0,18.0,44,-99.99,,,-99.99,,2013-04-01 16:03:00,
2013-04-01 11:13:00,31.0,12.0,-100.00,North,0,5.0,14.0,45,-99.99,,,-99.99,,2013-04-01 16:13:00,
2013-04-01 11:23:00,32.0,12.0,-100.00,North,0,5.0,13.0,43,-99.99,,,-99.99,,2013-04-01 16:23:00,
2013-04-01 11:33:00,32.0,12.0,-100.00,North,0,5.0,13.0,43,-99.99,,,-99.99,,2013-04-01 16:33:00,
2013-04-01 11:43:00,32.0,12.0,-100.00,North,0,5.0,13.0,43,-99.99,,,-99.99,,2013-04-01 16:43:00,
2013-04-01 12:42:00,35.0,12.0,-100.00,North,0,4.0,20.0,39,-99.99,,,-99.99,,2013-04-01 17:42:00,
2013-04-01 12:53:00,35.0,12.0,-100.00,North,0,4.0,14.0,38,-99.99,,,-99.99,,2013-04-01 17:53:00,
2013-04-01 13:02:00,35.0,12.0,-100.00,North,0,4.0,14.0,38,-99.99,,,-99.99,,2013-04-01 18:02:00,
2013-04-01 13:12:00,35.0,11.0,-100.00,North,0,4.0,16.0,37,-99.99,,,-99.99,,2013-04-01 18:12:00,
2013-04-01 13:22:00,36.0,12.0,-100.00,NNW,330,4.0,14.0,37,-99.99,,,-99.99,,2013-04-01 18:22:00,
2013-04-01 13:32:00,36.0,12.0,-100.00,NNW,330,4.0,14.0,37,-99.99,,,-99.99,,2013-04-01 18:32:00,
2013-04-01 13:42:00,36.0,12.0,-100.00,NNW,335,4.0,11.0,36,-99.99,,,-99.99,,2013-04-01 18:42:00,
2013-04-01 13:53:00,38.0,14.0,-100.00,NNW,345,4.0,11.0,36,-99.99,,,-99.99,,2013-04-01 18:53:00,
2013-04-01 14:03:00,38.0,14.0,-100.00,NNW,345,4.0,11.0,36,-99.99,,,-99.99,,2013-04-01 19:03:00,
2013-04-01 14:12:00,36.0,12.0,-100.00,North,10,3.0,11.0,36,-99.99,,,-99.99,,2013-04-01 19:12:00,
2013-04-01 14:23:00,36.0,11.0,-100.00,WNW,285,4.0,17.0,36,-99.99,,,-99.99,,2013-04-01 19:23:00,
2013-04-01 14:30:00,39.0,14.0,-100.00,NNW,345,4.0,15.0,35,-99.99,,,-99.99,,2013-04-01 19:30:00,
2013-04-01 14:32:00,36.0,11.0,-100.00,WNW,285,4.0,17.0,36,-99.99,,,-99.99,,2013-04-01 19:32:00,
2013-04-01 14:42:00,39.0,15.0,-100.00,NW,305,4.0,20.0,36,-99.99,,,-99.99,,2013-04-01 19:42:00,
2013-04-01 14:53:00,37.0,12.0,-100.00,NW,305,4.0,18.0,35,-99.99,,,-99.99,,2013-04-01 19:53:00,
2013-04-01 15:02:00,37.0,12.0,-100.00,NW,305,4.0,18.0,35,-99.99,,,-99.99,,2013-04-01 20:02:00,
2013-04-01 15:13:00,39.0,14.0,-100.00,NNW,345,4.0,15.0,35,-99.99,,,-99.99,,2013-04-01 20:13:00,
2013-04-01 15:22:00,39.0,14.0,-100.00,NNW,345,4.0,15.0,35,-99.99,,,-99.99,,2013-04-01 20:22:00,
2013-04-01 15:30:00,39.0,14.0,-100.00,NNW,330,4.0,20.0,36,-99.99,,,-99.99,,2013-04-01 20:30:00,
2013-04-01 15:43:00,41.0,15.0,-100.00,North,0,5.0,17.0,35,-99.99,,,-99.99,,2013-04-01 20:43:00,
2013-04-01 15:52:00,37.0,12.0,-100.00,NW,320,5.0,12.0,35,-99.99,,,-99.99,,2013-04-01 20:52:00,
2013-04-01 16:02:00,37.0,12.0,-100.00,NW,320,5.0,12.0,35,-99.99,,,-99.99,,2013-04-01 21:02:00,
2013-04-01 16:12:00,39.0,14.0,-100.00,NNW,330,4.0,20.0,36,-99.99,,,-99.99,,2013-04-01 21:12:00,
2013-04-01 16:23:00,39.0,14.0,-100.00,NNW,330,4.0,20.0,36,-99.99,,,-99.99,,2013-04-01 21:23:00,
2013-04-01 16:43:00,40.0,14.0,-100.00,WNW,300,4.0,15.0,34,-99.99,,,-99.99,,2013-04-01 21:43:00,
2013-04-01 16:53:00,40.0,15.0,-100.00,WNW,300,4.0,14.0,35,-99.99,,,-99.99,,2013-04-01 21:53:00,
2013-04-01 17:02:00,40.0,15.0,-100.00,WNW,300,4.0,14.0,35,-99.99,,,-99.99,,2013-04-01 22:02:00,
2013-04-01 17:12:00,40.0,15.0,-100.00,NNW,340,5.0,16.0,35,-99.99,,,-99.99,,2013-04-01 22:12:00,
2013-04-01 17:22:00,39.0,15.0,-100.00,North,350,4.0,12.0,36,-99.99,,,-99.99,,2013-04-01 22:22:00,
2013-04-01 17:33:00,39.0,15.0,-100.00,North,350,4.0,12.0,36,-99.99,,,-99.99,,2013-04-01 22:33:00,
2013-04-01 17:43:00,38.0,13.0,-100.00,North,0,4.0,13.0,35,-99.99,,,-99.99,,2013-04-01 22:43:00,
2013-04-01 17:52:00,39.0,13.0,-100.00,North,0,4.0,15.0,34,-99.99,,,-99.99,,2013-04-01 22:52:00,
2013-04-01 18:02:00,39.0,13.0,-100.00,North,0,4.0,15.0,34,-99.99,,,-99.99,,2013-04-01 23:02:00,
2013-04-01 18:12:00,39.0,13.0,-100.00,WNW,295,4.0,16.0,34,-99.99,,,-99.99,,2013-04-01 23:12:00,
2013-04-01 18:23:00,40.0,14.0,-100.00,NW,320,4.0,10.0,34,-99.99,,,-99.99,,2013-04-01 23:23:00,
2013-04-01 18:32:00,40.0,14.0,-100.00,NW,320,4.0,10.0,34,-99.99,,,-99.99,,2013-04-01 23:32:00,
2013-04-01 18:43:00,37.0,12.0,-100.00,WNW,290,4.0,14.0,34,-99.99,,,-99.99,,2013-04-01 23:43:00,
2013-04-01 18:53:00,38.0,13.0,-100.00,WNW,290,4.0,12.0,35,-99.99,,,-99.99,,2013-04-01 23:53:00,
2013-04-01 19:03:00,38.0,13.0,-100.00,WNW,290,4.0,12.0,35,-99.99,,,-99.99,,2013-04-02 00:03:00,
2013-04-01 19:12:00,37.0,13.0,-100.00,NW,320,4.0,16.0,36,-99.99,,,-99.99,,2013-04-02 00:12:00,
2013-04-01 19:22:00,36.0,11.0,-100.00,North,0,4.0,11.0,35,-99.99,,,-99.99,,2013-04-02 00:22:00,
2013-04-01 19:33:00,36.0,11.0,-100.00,North,0,4.0,11.0,35,-99.99,,,-99.99,,2013-04-02 00:33:00,
2013-04-01 19:42:00,35.0,11.0,-100.00,North,0,4.0,10.0,37,-99.99,,,-99.99,,2013-04-02 00:42:00,
2013-04-01 19:53:00,34.0,11.0,-100.00,NW,325,4.0,11.0,37,-99.99,,,-99.99,,2013-04-02 00:53:00,
2013-04-01 20:02:00,34.0,11.0,-100.00,NW,325,4.0,11.0,37,-99.99,,,-99.99,,2013-04-02 01:02:00,
2013-04-01 20:12:00,34.0,11.0,-100.00,NW,305,3.0,9.0,38,-99.99,,,-99.99,,2013-04-02 01:12:00,
2013-04-01 20:22:00,33.0,11.0,-100.00,NNW,330,4.0,12.0,40,-99.99,,,-99.99,,2013-04-02 01:22:00,
2013-04-01 20:32:00,33.0,11.0,-100.00,NNW,330,4.0,12.0,40,-99.99,,,-99.99,,2013-04-02 01:32:00,
2013-04-01 20:42:00,33.0,11.0,-100.00,NNW,330,2.0,7.0,40,-99.99,,,-99.99,,2013-04-02 01:42:00,
2013-04-01 20:53:00,32.0,11.0,-100.00,NW,305,1.0,8.0,41,-99.99,,,-99.99,,2013-04-02 01:53:00,
2013-04-01 21:02:00,32.0,11.0,-100.00,NW,305,1.0,8.0,41,-99.99,,,-99.99,,2013-04-02 02:02:00,
2013-04-01 21:12:00,32.0,12.0,-100.00,NW,315,2.0,7.0,42,-99.99,,,-99.99,,2013-04-02 02:12:00,
2013-04-01 21:22:00,31.0,12.0,-100.00,West,280,2.0,11.0,43,-99.99,,,-99.99,,2013-04-02 02:22:00,
2013-04-01 21:32:00,31.0,12.0,-100.00,West,280,2.0,11.0,43,-99.99,,,-99.99,,2013-04-02 02:32:00,
2013-04-01 21:42:00,31.0,12.0,-100.00,West,275,2.0,8.0,45,-99.99,,,-99.99,,2013-04-02 02:42:00,
2013-04-01 21:53:00,31.0,13.0,-100.00,NW,315,1.0,6.0,46,-99.99,,,-99.99,,2013-04-02 02:53:00,
2013-04-01 22:02:00,31.0,13.0,-100.00,NW,315,1.0,6.0,46,-99.99,,,-99.99,,2013-04-02 03:02:00,
2013-04-01 22:12:00,30.0,12.0,-100.00,NNW,335,1.0,9.0,46,-99.99,,,-99.99,,2013-04-02 03:12:00,
2013-04-01 22:22:00,30.0,12.0,-100.00,WNW,300,1.0,10.0,46,-99.99,,,-99.99,,2013-04-02 03:22:00,
2013-04-01 22:33:00,30.0,12.0,-100.00,WNW,300,1.0,10.0,46,-99.99,,,-99.99,,2013-04-02 03:33:00,
2013-04-01 22:43:00,30.0,12.0,-100.00,NW,325,1.0,6.0,47,-99.99,,,-99.99,,2013-04-02 03:43:00,
2013-04-01 22:53:00,30.0,12.0,-100.00,NNW,335,1.0,8.0,47,-99.99,,,-99.99,,2013-04-02 03:53:00,
2013-04-01 23:03:00,30.0,12.0,-100.00,NNW,335,1.0,8.0,47,-99.99,,,-99.99,,2013-04-02 04:03:00,
2013-04-01 23:13:00,30.0,12.0,-100.00,NNW,335,2.0,7.0,48,-99.99,,,-99.99,,2013-04-02 04:13:00,
2013-04-01 23:23:00,30.0,13.0,-100.00,NW,305,2.0,7.0,49,-99.99,,,-99.99,,2013-04-02 04:23:00,
2013-04-01 23:32:00,30.0,13.0,-100.00,NW,305,2.0,7.0,49,-99.99,,,-99.99,,2013-04-02 04:32:00,
2013-04-01 23:43:00,29.0,13.0,-100.00,NW,305,2.0,9.0,49,-99.99,,,-99.99,,2013-04-02 04:43:00,
2013-04-01 23:53:00,29.0,12.0,-100.00,NW,310,2.0,10.0,49,-99.99,,,-99.99,,2013-04-02 04:53:00,